sat.trackr.live / text

‹ back to catalog

STARLINK-3987

NORAD 52699 · 2022-053AV

PAYLOAD ACTIVE UNKNOWN

§ Identity

Operator
Country
US
Launch date
2022-05-18
Launch site
AFETR
Launch vehicle
Mass (kg)
RCS (m²)

Purposes: comms

External: N2YO · Heavens-Above · Gunter

§ Orbital elements

Epoch: 2026-09-20T05:07:54.351264Z

Period
93.85 min
Inclination
53.1599°
Eccentricity
0.0001066
Mean motion
15.34391417 rev/d
Perigee alt
462.0 km
Apogee alt
463.5 km
Semi-major
6,840.9 km
B*
5.3595e-5
RAAN
330.8004°
Arg perigee
83.9503°
Mean anomaly
276.1621°
Rev number
24,081

§ Raw data

STARLINK-39871 52699U 22053AV  26263.21382351  .00001435  00000+0  53595-4 0  99902 52699  53.1599 330.8004 0001066  83.9503 276.1621 15.34391417240812

JSON: /api/v1/satellites/52699 · /tle

For live sub-satellite position, see the globe view (requires WebGL).

§ Visibility from observer

Set your observer location to see the next 7 days of passes ≥ 10°. The values pass through the URL so the page stays shareable.

No JS? Fill the form by hand. The geolocation button needs JavaScript.